Wind_Speed
54 53 53 52 51 50 50 51 51 49 49 51 54 55 55 54 58 63 60 60 65 66 65 64 63 62 65 64 60 54 52 51 53 56 56 51 48 47 47 49 50 53 57 61 65 70 73 75 75 73 71 73 76 76 73 72 71 71 70 69 68 69 70 71 72 72 73 73 73 72 70 68 67 66 65 64 62 61 60 60 59 59 60 60 60 59 58
52 50 50 49 48 48 48 49 48 46 45 47 50 51 51 51 54 57 56 58 62 62 63 64 62 61 64 69 70 65 60 55 50 52 53 47 42 41 40 40 41 42 45 49 54 61 66 70 73 74 72 70 72 76 76 74 72 72 71 70 69 69 70 72 73 73 73 74 75 75 74 72 70 69 67 66 64 62 60 59 58 58 58 59 59 59 59
54 51 50 49 49 48 48 48 48 46 46 47 49 49 48 48 50 51 53 57 59 57 58 62 63 62 63 68 73 73 70 64 56 53 54 51 50 50 45 41 39 39 40 42 45 51 59 64 67 71 73 72 70 73 76 75 74 73 72 71 70 69 69 71 73 73 73 73 75 76 77 76 74 71 69 68 66 64 62 61 60 59 58 58 58 59 59
58 54 52 52 51 50 51 51 50 49 48 47 47 46 45 45 45 46 50 55 54 52 54 59 62 63 63 66 71 74 76 74 67 61 59 57 57 58 57 54 49 44 42 41 41 43 49 57 62 64 68 72 71 71 73 75 75 74 73 72 72 71 70 70 71 73 74 73 73 74 76 77 77 75 73 70 68 66 65 63 62 62 61 60 59 58 58
59 56 55 56 54 54 57 54 49 47 46 44 43 43 43 43 43 45 49 51 48 48 52 55 56 59 63 66 70 74 78 80 78 72 66 63 61 60 61 62 61 56 50 46 45 43 42 48 56 60 62 67 71 71 71 73 75 74 73 72 72 71 71 71 70 72 73 74 74 74 74 75 76 76 76 74 72 69 67 66 65 64 62 61 60 59 58
59 57 58 58 58 61 60 52 45 44 44 42 41 41 41 40 41 45 48 47 44 45 49 51 53 55 59 63 68 72 76 81 84 82 76 69 65 62 61 61 64 64 59 53 50 47 43 43 49 56 60 62 66 70 71 71 72 73 74 73 72 72 72 72 72 71 72 73 74 75 75 75 76 76 76 75 73 71 69 67 65 64 63 62 61 60 59
58 59 58 60 65 65 58 49 46 45 43 42 42 42 41 40 41 44 46 45 43 43 46 49 50 51 53 57 62 66 71 77 83 86 85 78 71 66 62 59 62 65 64 60 57 54 49 45 46 51 58 61 63 66 69 71 71 71 72 73 73 72 72 72 73 72 71 71 72 73 74 75 75 75 75 74 73 71 69 67 65 64 63 62 62 62 61
56 58 60 64 68 65 58 54 52 47 42 41 42 43 42 39 39 42 44 43 41 41 45 47 47 49 52 52 54 57 63 71 77 83 87 86 81 76 70 65 65 67 67 65 64 61 56 50 47 49 55 59 62 63 65 68 70 71 71 72 72 71 71 72 73 73 73 72 71 71 71 71 71 70 70 71 70 70 69 66 65 64 63 63 63 63 63
57 58 62 64 66 66 64 62 58 49 43 41 41 41 40 37 37 40 41 41 40 40 42 44 46 50 51 48 46 49 55 63 69 75 83 88 87 84 80 77 76 75 71 68 67 67 65 59 53 51 52 57 61 63 64 64 67 70 71 71 71 71 72 72 73 73 74 73 72 71 70 69 69 69 68 68 69 69 68 67 65 65 64 64 64 64 63
58 59 61 63 66 70 69 65 58 49 43 41 40 43 42 37 36 39 39 39 39 40 42 44 47 50 49 45 41 43 51 57 60 65 73 82 87 87 84 81 80 78 73 67 64 66 69 69 65 60 56 56 58 62 64 65 65 68 70 71 71 71 72 74 74 74 74 74 74 74 72 70 69 68 68 68 68 68 68 67 66 65 65 64 64 64 63
62 61 63 65 70 74 72 64 53 46 43 41 40 45 46 38 34 36 38 38 39 40 43 46 49 49 47 43 39 41 47 51 53 56 62 72 82 88 86 81 77 76 75 70 64 62 64 67 69 68 66 63 61 61 64 66 65 66 69 71 72 72 71 72 74 75 75 74 75 75 75 74 73 71 69 68 68 67 67 66 66 65 65 64 64 64 63
66 63 65 67 70 74 73 63 49 42 42 42 44 50 50 39 31 32 35 37 39 42 45 48 49 45 42 41 41 41 43 45 48 52 56 62 71 81 87 84 78 75 75 72 66 61 60 61 62 65 68 70 69 64 63 66 67 66 67 68 70 72 72 70 71 73 74 74 75 75 76 76 76 75 73 71 69 68 67 66 65 65 64 63 63 63 63
69 63 64 68 70 73 74 63 48 40 41 44 48 52 49 40 33 32 34 36 39 43 47 48 44 40 40 42 42 41 41 43 45 48 52 56 61 69 79 84 83 79 76 74 68 62 60 60 59 60 62 66 71 70 67 68 71 71 70 68 68 69 72 71 70 70 72 74 75 75 75 75 75 75 75 74 72 70 69 68 67 66 64 63 63 63 63
67 62 61 65 69 73 72 61 47 42 44 47 49 47 43 39 36 35 36 37 38 42 45 44 42 40 40 41 41 40 40 42 44 46 49 52 56 59 66 75 83 84 80 77 72 65 62 62 62 62 60 60 63 67 68 70 72 71 71 72 71 69 70 72 72 71 71 72 74 75 75 75 75 74 74 75 74 72 70 69 68 67 66 65 64 64 63
54 56 58 63 69 73 69 57 49 49 49 48 46 41 36 34 36 39 41 41 41 43 44 44 43 41 39 39 39 39 39 40 42 44 46 48 52 55 58 64 73 82 84 82 76 70 65 64 64 64 63 61 59 59 61 64 67 67 67 69 72 72 70 71 73 73 72 72 73 74 75 74 74 73 73 74 74 73 72 70 69 69 68 67 66 65 64
42 46 52 57 60 62 59 51 49 50 47 42 39 37 35 36 39 42 45 45 45 47 47 45 43 40 38 38 37 36 38 39 41 43 44 46 48 51 54 57 62 71 81 85 83 76 70 68 67 65 63 63 61 59 58 59 62 63 64 66 69 71 72 72 72 73 74 73 73 73 74 74 74 73 72 72 72 73 72 70 69 68 68 68 67 66 65
40 40 42 43 44 47 48 44 41 40 38 34 34 35 36 39 42 44 44 44 45 46 45 43 40 38 38 38 36 36 38 40 41 42 42 43 45 47 50 53 55 61 70 79 85 83 76 71 71 69 65 63 62 61 60 60 60 61 62 64 66 69 71 72 73 73 74 75 75 74 73 73 73 73 72 71 71 71 71 70 68 67 66 66 66 66 65
42 39 38 37 37 40 41 36 33 34 35 34 34 35 36 37 39 42 43 42 43 43 40 37 37 38 39 37 36 37 38 39 40 41 41 41 43 45 47 50 53 55 59 68 80 86 84 78 75 73 70 65 63 62 60 60 61 62 63 63 65 67 69 70 72 73 74 74 75 75 74 73 73 73 73 72 71 70 71 70 69 67 65 64 64 64 64
42 41 39 38 40 40 36 31 29 31 35 36 36 37 36 35 36 39 39 39 40 40 38 36 37 38 38 37 36 37 38 39 40 40 40 41 42 43 45 47 50 53 54 59 69 80 87 85 81 78 76 71 67 64 60 57 57 60 63 65 65 66 69 70 71 72 73 74 74 74 74 74 73 73 73 73 72 70 70 70 70 69 67 65 64 64 64
38 38 38 38 39 39 33 28 25 26 29 32 33 35 36 36 36 37 38 39 39 39 38 37 36 36 36 36 36 37 38 39 40 39 40 40 40 41 43 45 48 51 52 54 59 69 81 87 87 84 82 79 74 69 65 61 56 53 56 63 67 67 68 70 71 71 72 73 74 74 73 73 73 73 73 73 74 72 71 70 71 71 70 68 66 65 65
32 34 34 33 33 33 31 28 25 24 26 28 29 31 33 34 35 37 40 42 42 41 40 37 35 34 35 35 36 37 38 39 39 39 40 40 39 39 40 42 44 47 49 52 54 60 70 82 90 91 88 85 81 76 71 68 64 58 53 55 62 67 68 68 71 72 72 72 73 74 74 72 72 73 73 73 74 74 73 72 71 72 72 71 71 70 69
29 34 34 32 30 31 31 30 28 26 26 27 29 31 33 33 35 38 42 43 43 42 40 38 36 34 34 35 36 37 38 39 39 39 40 40 37 35 35 37 40 43 46 49 51 54 61 71 84 93 95 92 88 83 77 74 72 70 63 57 57 63 67 69 70 71 73 73 72 72 74 73 72 73 74 74 74 74 74 74 73 72 73 73 73 73 73
28 32 34 34 33 34 34 32 30 28 27 29 31 32 33 34 36 38 40 41 41 39 38 38 37 35 34 35 36 37 37 38 39 40 41 40 37 33 31 31 34 37 41 44 47 50 54 61 72 85 95 98 95 90 85 80 78 77 73 65 59 60 64 68 70 70 72 73 72 71 72 73 73 73 74 74 75 75 75 75 75 74 74 74 74 74 74
29 31 33 34 35 35 34 32 30 28 28 30 31 31 32 33 34 36 38 38 38 38 38 38 37 35 35 36 37 37 37 38 40 41 42 41 39 36 33 31 31 32 35 38 42 45 49 53 60 71 84 95 99 95 90 86 86 85 80 71 65 62 62 65 69 72 72 72 73 72 71 71 72 73 74 75 76 76 76 76 76 76 75 75 75 74 74
30 31 32 33 33 33 32 31 29 28 28 29 30 30 30 31 33 35 37 37 37 38 39 38 36 36 36 37 36 37 38 39 42 43 43 41 39 38 36 35 34 34 34 36 37 40 44 48 52 59 69 81 92 97 93 88 88 90 88 79 70 66 63 63 66 71 72 71 69 70 70 69 70 72 74 75 76 76 77 77 77 77 77 76 76 75 74
32 33 33 33 32 31 30 29 28 28 28 28 29 29 30 31 33 35 37 38 39 39 38 36 36 36 37 37 37 37 39 41 43 44 42 39 36 35 35 35 35 34 34 34 34 36 39 42 46 50 57 65 77 88 94 92 89 89 90 87 79 71 66 63 63 67 70 69 66 65 65 65 65 67 70 74 76 77 77 78 78 79 78 77 77 77 76
29 32 34 34 32 29 26 26 25 26 26 27 27 27 29 31 33 35 36 37 38 37 36 36 37 37 37 37 38 39 41 42 43 42 39 36 34 32 33 34 33 31 30 30 31 32 35 38 41 44 49 54 62 73 84 91 92 89 89 90 87 81 73 67 64 64 65 66 65 65 65 65 64 63 64 68 73 75 77 77 78 80 80 80 79 78 77
28 29 30 30 29 26 24 24 25 25 25 26 26 27 29 31 33 34 35 36 36 36 36 37 37 37 37 38 40 41 43 44 44 41 37 34 32 31 32 34 35 33 31 30 30 31 32 34 37 40 43 47 52 59 69 80 89 91 89 89 91 90 84 76 70 67 65 64 63 64 67 71 71 67 63 64 68 72 75 76 77 79 81 82 81 80 79
31 30 29 28 27 26 26 25 25 25 24 24 25 27 29 32 33 33 34 35 36 35 35 35 36 37 38 40 41 43 44 44 42 39 36 34 31 29 30 33 35 35 34 32 31 31 31 32 32 35 38 41 45 50 56 65 76 85 89 89 91 93 91 86 81 76 71 68 65 63 64 70 75 74 69 64 64 67 71 73 75 77 80 82 83 82 82
36 35 34 32 30 29 28 26 25 24 24 24 26 28 30 32 32 33 33 34 34 34 34 35 36 38 39 40 41 43 43 41 38 36 36 35 32 30 30 31 32 32 32 31 29 30 31 31 30 31 32 35 38 43 48 54 62 72 81 86 90 92 91 88 86 84 79 76 72 69 66 68 73 76 73 67 63 62 65 68 72 75 77 80 81 82 83
40 40 39 36 33 30 28 26 25 25 25 27 28 29 30 31 31 32 32 32 32 33 34 36 37 38 39 40 40 40 38 36 34 34 36 36 34 32 32 32 31 30 29 28 28 28 29 30 30 29 29 30 32 36 41 46 52 60 69 77 84 88 89 87 85 85 85 82 78 75 72 69 71 74 73 69 64 60 59 62 66 70 74 76 78 80 81
35 38 38 37 34 30 27 26 25 26 28 28 29 30 31 31 32 32 32 32 33 34 35 37 38 38 38 38 37 36 33 32 32 33 35 37 36 35 34 34 34 33 32 31 29 29 30 31 31 30 28 28 29 31 35 39 44 50 58 66 73 81 84 84 82 82 84 84 82 80 77 74 72 73 73 71 67 63 59 58 60 65 69 72 74 76 78
28 31 33 33 31 28 25 25 25 26 27 29 30 31 31 32 32 32 33 34 34 35 36 37 38 37 36 35 33 31 30 29 29 30 32 36 38 38 37 36 36 35 35 34 33 32 33 34 34 33 31 30 29 30 31 34 38 43 49 56 63 71 77 78 77 77 79 81 82 81 79 77 75 74 74 73 71 67 63 60 58 60 63 67 70 72 74
24 26 27 27 26 25 24 25 25 26 27 29 31 32 32 32 33 34 35 35 36 37 38 38 37 36 34 33 31 30 30 29 28 28 29 32 35 38 40 40 39 38 37 37 37 37 37 37 38 37 35 32 31 30 31 31 34 37 41 47 54 61 68 71 72 72 73 76 79 79 79 78 77 75 75 75 74 72 69 65 62 60 60 62 64 67 69
22 23 24 24 24 24 24 25 25 27 28 30 32 32 33 34 35 35 36 36 37 38 39 39 37 36 35 33 32 31 31 31 30 30 30 31 32 35 37 41 43 43 41 39 39 40 40 40 40 39 37 34 32 31 31 31 32 34 36 40 45 51 58 63 67 67 68 70 73 76 76 76 75 75 75 75 75 75 73 70 68 66 63 61 61 61 62
21 23 24 25 24 25 25 26 27 29 30 32 33 34 35 35 35 36 37 38 39 41 42 41 38 36 34 33 32 32 32 32 32 32 33 34 35 36 36 38 41 44 45 44 43 42 42 42 41 40 39 37 35 33 32 32 32 32 34 36 39 43 48 54 59 63 65 66 67 70 73 73 73 74 74 74 75 76 75 73 72 71 69 67 64 61 59
23 24 25 26 26 27 28 29 30 31 32 33 34 35 35 36 37 38 39 40 42 44 44 41 38 35 34 34 34 33 33 33 33 35 36 38 38 37 36 36 37 39 41 43 44 44 44 43 42 40 39 38 36 34 33 33 33 33 33 35 37 39 42 46 51 56 60 63 64 65 68 70 71 72 72 73 74 75 75 75 74 73 72 72 70 68 64
24 25 26 27 27 28 29 30 31 32 33 34 35 35 36 37 38 40 41 43 44 43 40 36 34 34 35 35 35 34 35 35 37 38 37 36 34 33 32 32 33 34 35 37 38 39 39 38 37 36 35 34 34 34 34 35 35 35 34 35 36 38 40 43 46 49 54 58 61 62 63 65 68 70 71 72 72 74 75 75 75 74 74 73 71 70 69
24 25 26 27 27 28 29 30 31 33 34 35 35 37 38 39 41 42 44 43 41 37 33 31 31 31 32 33 34 35 36 37 37 35 32 30 28 27 27 27 27 28 30 31 32 32 32 32 32 32 31 31 32 33 34 35 36 37 37 36 36 37 38 41 44 47 49 53 57 60 61 62 64 66 69 71 72 73 75 76 76 75 74 72 70 68 67
25 25 26 27 28 29 30 31 32 33 34 35 36 38 40 41 42 41 39 35 32 30 30 30 30 30 31 33 34 35 34 33 31 29 27 26 26 26 25 26 26 27 27 28 29 29 29 29 28 27 27 26 28 30 33 34 36 38 39 38 38 37 38 39 42 45 48 50 53 57 59 61 61 63 65 68 71 72 74 76 77 76 75 73 68 64 62
25 26 27 28 29 30 30 31 32 33 34 35 37 39 39 38 36 33 29 27 27 27 29 30 30 31 31 32 32 31 29 28 27 27 26 26 26 26 26 27 27 27 27 27 28 28 28 27 25 23 22 21 23 26 29 33 35 37 38 39 39 39 39 40 41 43 46 49 52 55 57 60 61 61 62 65 68 71 73 75 77 76 76 74 69 63 60
26 27 28 29 30 30 31 32 33 34 35 37 37 36 33 31 28 26 24 24 25 26 27 28 28 29 29 29 28 27 27 27 27 27 26 26 26 26 26 26 27 26 26 26 26 26 25 23 21 20 19 20 21 23 26 29 33 35 36 37 38 39 39 40 41 42 44 47 50 53 56 59 61 63 63 64 65 67 71 73 75 75 74 73 70 66 63
27 28 29 30 30 31 33 34 35 36 36 35 32 29 27 25 24 23 22 22 22 23 23 24 24 25 25 25 25 25 26 27 27 27 26 26 26 25 25 25 25 25 25 24 24 23 22 20 19 19 20 21 21 22 23 26 29 31 33 35 36 37 39 40 41 42 43 45 48 51 55 58 61 63 65 66 67 67 69 71 72 73 71 69 66 65 64
28 29 30 32 33 34 35 35 35 33 30 28 26 24 23 22 22 21 21 21 21 21 22 22 23 23 24 24 25 25 26 27 27 27 27 27 26 25 25 25 25 25 24 23 22 22 22 21 21 21 22 22 22 22 23 24 25 27 29 30 32 34 36 38 40 42 43 44 46 48 52 56 59 62 65 67 69 70 70 70 71 70 68 65 63 61 61
31 33 34 34 35 34 32 30 28 25 24 23 22 22 21 21 21 21 21 22 22 22 22 23 23 24 24 25 25 25 26 26 27 27 27 27 26 26 26 25 25 25 24 23 22 22 22 23 24 24 25 24 24 24 24 24 24 25 26 27 28 30 31 34 37 40 42 44 45 46 49 52 57 60 62 65 67 69 69 70 70 69 66 63 61 59 58
33 33 32 30 28 26 24 22 21 20 20 21 21 22 22 22 22 22 23 23 24 24 25 25 26 26 26 26 26 26 26 26 26 26 26 26 25 26 26 26 26 26 26 25 24 24 24 25 26 27 28 28 28 27 27 27 26 26 25 26 27 27 28 29 32 36 39 43 45 46 47 49 53 58 61 64 65 67 67 68 68 67 65 63 62 60 57
26 25 23 21 20 19 19 18 19 19 20 21 22 23 23 24 24 24 25 25 26 27 27 28 28 28 29 29 28 28 28 27 27 26 26 26 25 25 26 27 28 29 29 29 28 28 27 27 27 28 29 30 31 31 31 31 30 29 28 27 27 27 27 27 28 31 35 39 43 46 47 48 49 54 59 63 65 67 68 68 68 67 66 64 64 62 58
19 19 19 19 19 19 20 20 21 22 22 23 24 25 25 26 27 27 28 29 29 30 30 31 31 31 32 32 32 32 31 31 30 30 30 29 28 28 27 27 28 29 30 31 32 32 32 32 31 31 31 31 32 33 33 34 34 33 31 30 29 29 28 28 28 29 31 34 39 43 47 48 48 50 54 59 63 66 68 69 69 69 68 67 66 65 62
17 18 19 20 21 22 23 24 25 25 26 27 28 28 29 30 30 31 32 33 33 34 34 35 35 36 36 36 36 36 36 35 35 35 34 34 34 33 32 31 31 31 31 32 32 33 34 35 35 35 35 35 34 34 35 35 35 36 35 34 32 32 31 30 30 30 31 32 35 39 43 47 48 49 51 55 59 64 67 69 69 69 69 69 69 68 67
19 20 21 22 23 24 26 27 28 29 30 31 31 32 33 34 34 35 36 36 37 38 38 39 39 40 40 40 41 41 40 40 40 40 40 39 39 39 38 38 37 36 35 34 34 34 35 36 36 37 38 38 38 38 37 37 37 37 37 36 35 35 34 33 33 32 32 33 34 36 40 44 47 49 50 52 55 59 64 66 67 68 69 69 68 69 70
20 21 22 23 24 26 27 28 29 30 31 32 33 34 35 36 36 37 37 38 38 39 39 40 40 40 41 41 41 42 42 42 42 43 43 43 43 44 44 44 43 43 42 41 40 39 38 38 37 38 38 39 40 40 40 40 40 39 39 39 38 37 37 36 36 35 34 34 34 35 38 41 45 48 49 51 52 55 59 62 64 66 67 68 66 66 69
22 23 24 25 27 28 29 30 31 32 32 33 33 34 34 35 35 35 35 36 36 36 36 36 37 37 37 37 37 37 38 38 39 39 40 41 42 43 44 44 45 46 46 46 46 46 45 44 43 41 40 40 40 40 40 41 41 41 41 41 40 40 39 38 38 37 36 35 34 34 36 38 42 45 48 50 51 53 55 59 61 62 64 64 61 60 63
Wind_Direction
271 269 268 268 269 268 263 260 258 257 255 255 254 254 253 253 254 255 254 253 252 250 249 249 246 243 239 237 237 239 242 246 249 249 249 251 254 254 253 254 255 253 251 247 242 237 235 234 233 233 232 231 230 230 230 231 231 231 230 229 229 229 231 231 230 229 228 227 226 226 227 227 227 228 228 229 230 231 232 233 234 235 236 237 239 240 240
270 268 267 269 270 268 265 262 259 256 254 253 254 253 251 249 252 255 255 254 252 250 250 250 247 243 238 235 234 234 235 236 239 244 246 243 240 240 243 248 251 250 250 249 245 240 235 233 233 233 233 231 230 229 229 229 230 230 230 230 228 228 229 230 230 230 229 229 228 227 227 227 227 227 227 228 229 230 231 232 233 234 236 237 238 239 240
266 265 265 266 266 266 265 263 259 253 250 250 252 254 255 254 255 255 255 255 253 251 251 251 248 245 241 238 235 234 235 235 234 238 242 238 231 230 233 236 239 242 244 245 245 243 238 234 232 232 233 232 230 229 229 229 229 229 230 230 229 228 228 229 230 230 230 230 230 229 228 228 228 228 228 229 230 231 231 232 233 234 235 236 238 239 240
264 264 264 265 265 264 262 260 258 254 254 255 257 260 261 260 258 256 255 255 254 252 250 250 250 247 244 241 238 234 234 236 236 236 236 235 232 233 234 232 231 232 233 232 234 236 237 235 232 231 231 232 232 230 229 228 228 228 229 229 229 228 228 228 228 229 230 230 231 231 230 230 229 229 229 230 231 232 233 233 233 233 234 236 237 239 240
264 264 263 264 264 260 258 259 260 261 263 263 263 261 259 258 258 255 255 256 257 254 251 250 252 250 246 243 241 237 234 235 236 236 234 231 230 233 236 237 236 233 230 227 224 221 223 229 231 230 229 230 232 231 229 228 228 228 228 228 228 228 228 228 228 228 229 230 231 232 232 232 232 231 231 232 232 233 234 234 234 234 235 236 237 239 240
263 263 262 262 259 256 257 261 263 263 264 264 263 261 259 257 254 253 255 256 256 256 254 253 254 252 249 246 243 240 238 236 235 236 235 232 229 228 232 236 238 236 232 229 226 220 216 217 222 226 226 226 229 230 230 228 227 227 227 227 227 227 227 228 228 228 228 229 230 231 233 234 234 234 234 234 234 234 234 234 234 234 235 236 237 239 240
261 260 259 259 257 256 259 262 261 259 259 261 262 262 259 256 253 253 257 259 258 258 257 257 257 256 254 251 247 244 242 240 237 237 236 234 229 226 227 231 235 237 234 230 227 225 222 218 216 219 222 223 224 227 229 228 226 226 226 226 226 226 226 226 227 228 228 229 229 230 231 232 234 235 235 235 235 234 234 233 234 235 235 236 237 239 240
257 257 256 255 257 259 259 257 255 255 256 257 261 263 261 259 258 258 259 260 260 259 258 258 260 261 258 255 252 250 247 244 241 239 238 236 233 229 228 229 233 237 238 234 229 226 225 222 218 217 218 219 221 222 224 226 226 225 225 225 226 226 226 226 226 226 228 228 229 230 230 231 231 232 233 233 233 233 232 232 233 234 235 236 237 238 239
252 255 255 256 257 258 256 254 253 254 257 260 261 262 260 256 256 258 259 260 260 260 261 261 262 262 262 260 257 256 253 248 245 242 241 239 236 234 232 233 236 239 241 239 234 229 225 222 221 220 219 218 219 220 220 222 224 225 224 224 225 225 225 225 224 225 225 227 228 229 230 230 231 231 231 231 232 232 232 232 232 233 234 235 236 237 238
252 253 255 256 256 256 254 255 256 256 258 260 260 259 257 254 254 258 260 262 262 263 264 264 262 262 263 263 263 261 257 253 250 247 244 241 239 237 235 235 237 238 237 236 235 232 228 225 223 224 224 221 219 219 219 219 220 222 223 224 224 225 225 225 225 225 225 226 226 227 228 229 229 230 230 230 230 230 231 231 231 232 233 234 234 235 237
252 252 253 254 255 256 256 257 258 258 256 257 257 257 257 256 258 260 262 264 265 265 263 261 261 262 264 266 267 264 260 257 256 253 249 244 241 239 236 234 234 235 233 231 231 232 232 230 227 225 226 226 223 219 219 220 219 219 221 223 224 224 225 226 227 227 227 226 227 227 228 228 228 229 229 230 230 230 230 229 229 230 231 232 233 234 235
252 252 253 254 255 256 257 258 258 257 257 256 255 256 259 262 265 266 266 266 265 261 258 258 260 264 268 270 269 267 264 263 262 258 254 250 245 242 239 235 233 233 232 229 229 230 231 232 232 229 226 227 228 225 220 219 220 219 220 222 223 224 225 226 227 228 228 227 226 227 228 228 228 229 229 229 230 230 231 231 230 230 231 231 232 234 235
252 254 256 255 255 256 257 258 258 258 258 256 254 258 264 270 271 267 262 259 257 254 254 257 262 267 270 271 270 269 267 266 264 261 258 256 252 247 243 239 234 232 231 229 227 227 228 229 231 232 230 228 229 229 224 223 225 225 224 224 224 224 225 225 226 227 228 227 226 226 227 227 228 229 229 229 230 230 231 232 232 231 231 232 232 234 235
250 253 255 255 255 255 256 257 258 258 257 257 261 268 274 274 267 258 251 248 248 250 254 260 265 266 267 268 270 270 269 268 266 264 262 259 256 252 249 244 238 234 231 229 227 226 225 225 225 227 229 230 230 230 228 227 229 230 228 227 225 225 225 225 225 226 227 228 227 226 226 226 226 228 228 229 229 230 230 231 231 232 232 232 232 233 234
249 250 251 251 252 253 256 259 262 261 261 264 269 273 271 263 256 250 247 247 249 253 258 261 263 263 264 267 270 271 271 270 269 268 266 263 259 256 253 250 244 237 233 230 228 225 224 224 221 219 221 224 228 229 229 228 229 229 227 226 225 225 225 225 225 225 226 227 227 227 226 225 225 225 227 228 228 229 229 230 230 231 232 232 232 232 233
246 248 249 250 253 257 261 264 265 267 267 266 266 264 258 254 253 253 252 253 254 257 260 262 263 264 265 267 269 271 272 272 271 270 269 266 263 260 256 254 249 243 237 232 229 226 224 223 221 218 215 217 221 224 226 227 228 228 226 223 224 225 225 225 225 225 226 226 227 228 227 226 225 225 224 225 227 227 228 228 228 228 229 231 231 232 232
244 246 249 252 255 259 262 264 263 265 263 256 251 252 252 253 255 256 255 255 255 256 259 262 264 265 266 267 268 271 274 276 275 274 273 270 266 262 258 255 253 248 242 236 231 228 225 223 222 220 216 214 215 218 221 224 225 226 226 224 223 224 225 225 225 225 226 226 227 228 228 227 226 225 224 224 224 225 225 226 226 226 227 228 229 230 231
247 247 248 250 253 258 263 265 261 256 253 248 245 245 246 247 249 252 253 254 254 255 257 258 260 262 263 266 269 272 276 280 280 279 278 275 270 264 259 255 253 250 246 240 234 229 226 224 223 222 219 215 214 214 217 220 222 224 226 226 224 224 225 226 226 225 225 226 226 227 228 228 227 226 225 224 224 224 224 224 224 224 225 226 227 228 229
246 248 249 250 251 255 259 259 254 248 245 244 241 239 239 241 244 248 251 253 255 257 257 256 257 259 262 266 270 274 277 280 284 285 283 280 275 268 261 256 252 250 247 243 237 232 228 225 224 222 221 219 217 216 215 217 219 221 223 225 225 224 225 227 228 227 226 225 226 226 227 228 228 227 226 225 224 223 223 223 222 222 222 223 224 226 227
242 245 245 244 245 248 249 250 249 242 237 237 237 236 238 241 245 250 254 257 258 260 259 258 258 260 263 267 270 273 276 280 285 288 288 285 279 273 266 259 254 250 247 244 240 235 230 227 225 224 223 223 222 220 217 216 217 219 220 222 224 225 226 227 228 229 228 226 225 226 226 226 227 227 227 225 224 223 222 222 221 221 220 220 221 223 224
237 237 237 237 239 241 243 246 246 240 237 238 239 239 242 246 251 255 259 260 261 262 261 261 261 261 263 265 268 271 276 282 287 291 293 290 284 277 271 265 259 254 250 246 242 237 233 229 226 225 226 226 227 226 222 219 219 221 221 222 223 225 227 227 227 228 230 229 227 226 226 226 226 226 227 226 224 223 222 222 222 221 221 220 221 221 222
234 235 235 237 238 240 243 245 242 238 239 242 241 240 243 248 251 255 258 260 261 262 262 262 261 261 262 264 268 272 277 283 288 293 294 291 285 278 275 271 266 261 256 251 246 241 236 231 228 226 227 228 229 229 227 224 223 225 226 225 224 224 226 228 229 227 228 230 230 228 227 226 225 225 225 226 225 224 223 222 222 222 222 221 222 222 222
228 232 235 237 240 244 248 247 242 238 239 244 245 244 246 249 252 256 259 260 259 259 260 260 260 261 263 265 269 274 279 284 289 293 294 289 279 271 270 272 270 266 262 258 254 247 241 236 230 227 227 228 230 231 230 227 227 228 228 226 227 226 224 226 229 229 228 228 230 231 229 228 227 226 225 225 225 224 223 222 222 222 222 222 222 223 223
223 227 232 235 239 244 247 246 244 241 240 244 248 250 252 254 256 259 261 259 258 258 259 259 259 261 265 268 272 276 281 285 289 291 292 288 278 266 261 263 265 267 267 264 260 255 249 243 236 230 228 228 229 231 230 228 229 231 230 226 226 228 228 225 226 229 230 228 228 229 230 230 228 228 226 225 224 224 224 223 223 222 222 222 222 223 223
221 225 229 233 236 241 245 245 246 245 242 242 247 251 254 256 257 257 258 258 258 258 257 257 259 263 266 270 275 278 282 286 289 289 289 285 277 266 259 257 259 264 268 268 266 262 257 251 244 237 231 229 229 230 230 228 227 230 231 228 224 224 228 228 225 225 229 230 229 227 227 228 229 229 228 227 226 225 224 224 224 223 223 223 223 223 223
220 224 228 232 235 240 246 249 248 247 244 245 248 250 254 258 259 258 258 258 257 257 255 255 259 264 269 273 277 281 284 287 287 286 284 279 273 265 259 258 260 262 265 267 267 265 262 258 252 245 238 233 230 229 229 228 227 227 230 230 227 223 223 227 227 224 225 228 230 229 227 226 227 228 229 230 229 228 227 226 225 224 224 224 224 224 224
219 223 227 231 235 240 248 251 248 243 241 244 248 251 255 258 259 259 258 257 255 253 252 256 261 267 272 277 280 283 286 287 285 281 275 270 267 262 256 255 258 259 260 263 266 267 266 263 260 254 247 240 235 231 229 228 227 226 227 230 231 228 223 222 224 224 223 225 227 229 230 229 228 228 229 231 233 232 231 229 228 227 226 225 225 225 225
220 222 224 230 237 245 255 256 249 243 242 245 250 255 257 258 257 256 255 253 251 252 254 260 266 271 276 280 282 285 286 285 281 274 265 259 261 261 256 254 256 258 260 264 267 269 268 266 264 260 255 249 243 237 232 229 228 227 227 228 230 232 228 223 222 223 224 224 225 227 229 230 231 230 229 230 234 236 235 233 231 230 229 228 226 226 226
224 227 231 237 243 253 263 262 252 246 247 250 255 260 261 259 257 254 252 250 251 255 260 265 269 274 279 283 285 286 285 282 277 267 256 252 256 259 257 256 258 260 263 265 267 269 269 268 266 263 259 254 249 244 239 234 230 229 228 227 229 232 232 228 225 224 225 225 225 225 226 226 229 230 229 226 227 230 232 232 232 231 230 229 228 227 227
232 235 239 244 248 256 263 261 253 251 254 258 262 265 264 260 256 252 251 252 255 259 264 268 272 277 281 285 286 284 282 278 272 260 250 248 251 255 257 258 260 262 263 264 265 266 267 267 266 264 260 256 252 248 245 241 235 231 229 228 228 231 233 232 229 228 228 228 228 228 227 224 224 226 227 225 222 222 225 227 229 231 230 230 229 229 228
234 236 239 244 251 256 258 255 251 254 259 262 264 264 260 256 253 252 252 255 259 262 266 270 275 280 284 285 285 282 278 273 267 258 251 248 250 254 257 258 258 259 260 260 260 261 264 265 265 264 261 257 253 249 247 245 241 236 232 230 229 230 234 235 233 231 230 230 230 230 231 229 225 224 224 224 223 223 223 223 224 227 229 230 229 229 228
227 230 233 240 248 252 251 249 251 256 260 261 260 258 255 253 253 253 255 258 262 265 269 274 279 282 284 284 281 277 272 268 265 260 255 252 252 254 256 257 256 256 256 257 259 261 263 264 265 264 262 258 254 249 245 245 244 241 237 234 231 231 234 236 236 234 233 232 232 232 232 232 230 227 226 226 225 225 226 226 224 223 225 227 228 229 229
225 228 232 237 242 245 246 248 252 255 257 257 256 254 253 253 254 256 258 262 265 269 273 278 281 282 281 278 274 269 267 266 266 264 261 258 256 257 257 257 257 257 256 258 260 262 264 265 266 267 266 262 257 251 244 241 242 242 240 237 235 233 234 236 238 237 235 234 234 234 234 234 234 232 230 229 228 227 228 229 229 226 223 223 224 226 227
228 231 235 237 239 242 245 249 251 252 252 253 253 253 253 254 256 259 262 265 268 272 277 280 281 278 273 269 265 263 263 265 265 264 265 264 262 261 260 259 259 258 258 259 260 262 264 266 266 268 268 266 260 254 247 240 238 239 239 239 237 236 235 236 237 238 237 235 235 235 235 235 236 235 234 233 232 231 230 230 231 231 228 224 222 221 223
232 236 238 238 240 244 248 249 250 251 251 251 252 252 254 256 259 261 265 268 271 275 279 281 278 271 265 261 259 259 260 262 264 266 268 269 269 267 264 262 260 259 259 259 261 262 264 266 267 266 265 263 261 255 248 241 237 236 236 237 237 236 236 236 237 238 238 237 236 236 236 236 236 237 237 236 235 235 235 233 233 233 232 230 227 224 222
235 237 238 239 243 248 250 250 251 251 251 252 253 254 256 259 262 266 269 272 275 278 281 279 273 265 260 257 257 257 259 262 266 270 272 274 274 273 269 264 261 260 259 259 261 262 264 267 268 267 264 263 262 256 246 238 236 235 235 234 234 235 235 236 236 236 237 238 237 236 236 236 236 237 238 238 238 238 238 238 237 236 235 234 233 231 229
234 236 238 242 246 249 250 251 251 251 252 252 254 257 260 264 268 271 273 276 279 280 279 275 267 260 257 256 257 259 263 267 270 273 275 277 276 274 271 266 261 259 259 259 260 262 265 266 267 267 264 262 260 254 243 234 231 232 234 234 233 233 233 233 234 235 236 237 237 237 236 237 237 237 238 238 239 239 240 241 241 241 240 239 238 237 236
235 239 242 246 248 248 249 249 250 251 253 255 258 262 266 270 272 275 277 279 280 278 274 268 262 257 255 256 259 263 266 269 272 274 275 275 273 271 269 266 262 259 259 260 261 262 263 264 264 263 261 258 254 249 241 232 228 229 231 233 233 233 232 232 232 233 234 235 236 236 236 236 237 237 238 239 239 240 241 242 243 243 244 243 242 241 241
240 243 244 246 246 247 248 250 252 254 257 261 265 268 271 274 276 278 280 280 278 272 264 258 256 256 256 258 262 265 268 271 272 272 270 267 266 266 266 265 262 260 260 261 262 263 263 263 262 261 259 256 252 247 240 232 227 227 229 231 231 232 232 232 231 231 232 233 234 235 235 235 235 236 237 238 239 240 241 242 243 244 244 244 244 243 243
240 242 243 244 246 248 250 253 256 260 264 268 271 275 277 279 280 280 279 275 270 263 258 256 257 259 261 263 266 268 269 268 266 263 260 259 260 261 262 262 262 262 262 263 264 264 264 264 263 260 258 256 252 247 241 234 229 228 229 230 230 230 231 232 231 231 230 231 231 233 234 234 233 234 235 237 239 240 241 242 243 243 244 243 243 242 243
240 242 244 246 249 252 255 258 262 266 270 274 277 280 281 280 278 276 271 267 263 260 259 259 260 262 263 265 266 266 264 261 258 257 257 258 259 260 260 261 261 261 262 262 263 263 264 262 258 253 250 249 249 247 242 237 234 232 232 233 233 233 233 232 232 231 230 229 229 230 231 232 233 232 233 234 236 238 240 241 242 243 243 242 241 241 242
243 245 248 251 255 258 261 265 269 273 277 280 281 280 277 273 270 267 265 263 261 260 259 260 260 261 261 262 262 260 258 256 256 256 257 258 260 262 262 260 259 258 258 258 259 260 258 253 246 241 238 238 240 242 241 239 238 237 237 237 236 236 235 234 232 231 230 229 228 228 228 230 231 232 232 232 233 235 237 239 241 241 242 241 241 241 243
251 254 257 260 263 266 269 273 276 279 281 279 275 269 263 260 258 259 259 258 258 258 259 260 261 262 263 263 263 261 258 258 258 258 258 260 263 264 261 257 255 255 255 255 255 254 251 245 240 237 236 235 235 237 239 240 240 241 242 241 241 240 238 236 234 232 231 229 228 227 226 226 228 230 232 233 233 234 235 236 238 239 239 239 239 240 242
259 262 265 267 271 274 277 279 280 278 274 267 260 255 253 254 255 256 257 259 260 261 262 263 265 266 267 267 267 266 265 265 264 263 263 263 264 262 258 253 250 251 252 254 254 253 250 248 244 242 240 238 237 236 237 239 240 242 243 244 244 244 242 239 236 233 231 230 229 227 225 224 224 225 228 230 232 234 234 235 236 237 237 237 237 238 240
266 269 271 273 275 277 276 274 270 263 257 253 252 252 254 255 256 257 258 259 260 261 262 263 264 264 265 266 267 267 268 268 267 267 266 264 262 260 255 251 248 248 249 252 254 253 251 249 247 246 244 243 242 242 241 240 241 242 243 243 244 244 244 242 239 235 232 230 229 228 226 224 222 222 222 224 226 229 231 232 233 234 234 234 234 235 237
270 271 271 271 270 267 263 258 254 251 250 251 253 253 253 254 255 256 257 258 259 260 261 261 262 263 264 265 266 266 265 265 265 265 265 263 262 259 256 253 251 250 250 251 253 254 253 251 249 248 247 247 247 247 247 246 245 244 242 241 241 241 241 242 241 238 235 231 229 228 226 225 223 221 220 220 221 222 225 227 229 230 231 231 231 232 233
265 263 260 257 253 251 249 248 249 251 253 254 254 254 255 256 256 258 259 260 260 261 261 262 263 264 265 265 266 266 266 265 264 264 263 262 261 260 258 256 255 254 253 253 254 255 255 255 253 251 249 249 249 249 250 250 249 248 245 242 239 237 237 237 239 239 238 234 231 229 227 226 223 221 220 219 219 219 219 221 223 225 227 227 228 229 229
250 248 247 246 247 248 249 250 251 253 255 256 258 259 260 261 261 262 263 263 263 263 264 264 264 264 265 265 265 265 265 265 265 264 263 262 261 260 258 257 255 254 254 254 255 255 256 256 255 254 252 251 251 250 250 250 250 250 248 245 241 238 237 236 236 237 238 237 234 231 228 227 225 222 220 219 218 218 217 218 219 221 223 225 226 227 227
245 245 246 248 250 252 253 255 256 257 258 260 262 263 265 266 266 267 267 267 267 267 267 267 267 267 267 266 266 266 265 265 264 263 263 262 261 261 260 259 257 255 253 253 253 253 254 254 255 254 254 253 252 252 251 250 249 249 249 247 245 243 241 240 239 239 239 238 237 234 231 228 226 224 222 219 218 217 217 216 216 217 219 221 223 225 226
250 251 251 253 254 256 257 258 260 261 262 263 265 266 267 268 268 269 269 269 269 269 269 268 268 268 268 267 267 266 266 265 264 263 262 261 260 259 259 258 258 257 255 254 253 252 251 251 252 252 252 252 252 252 252 251 250 250 249 248 247 245 245 244 245 245 244 243 241 238 233 229 227 225 223 221 218 216 216 215 214 214 215 217 218 220 223
258 259 260 261 262 263 264 266 267 268 269 270 271 272 272 273 273 273 273 273 272 272 272 271 270 270 269 269 268 267 267 266 265 264 263 262 260 259 258 257 256 255 255 254 253 253 252 251 251 250 250 250 250 250 250 251 251 250 250 249 248 247 247 247 247 248 249 249 247 244 239 233 229 226 224 222 220 217 215 213 212 211 212 213 213 214 218
268 268 269 270 271 272 273 274 275 275 276 276 277 277 277 277 277 277 276 276 275 275 274 274 273 272 272 271 270 270 269 268 267 266 265 263 262 261 259 258 256 255 254 253 253 252 252 252 251 251 250 249 249 249 249 249 249 249 249 249 249 249 248 248 249 250 251 252 252 249 245 240 233 228 225 223 221 218 215 213 211 209 208 208 209 210 212
Height
5384 5388 5388 5387 5386 5387 5389 5390 5390 5392 5392 5391 5391 5393 5397 5397 5390 5391 5405 5408 5402 5408 5417 5419 5425 5432 5431 5431 5431 5431 5433 5434 5435 5438 5442 5447 5450 5452 5454 5456 5459 5463 5467 5472 5480 5486 5493 5500 5505 5510 5515 5521 5526 5531 5536 5541 5545 5549 5553 5558 5562 5567 5572 5577 5581 5586 5590 5594 5598 5603 5607 5611 5615 5618 5622 5626 5629 5633 5637 5641 5645 5648 5651 5655 5658 5662 5665
5375 5379 5380 5380 5379 5379 5380 5381 5383 5385 5385 5384 5384 5385 5388 5388 5384 5389 5398 5395 5394 5403 5409 5410 5415 5420 5420 5420 5420 5422 5425 5427 5430 5433 5436 5442 5447 5448 5450 5452 5455 5458 5461 5465 5470 5477 5484 5490 5495 5501 5506 5512 5517 5522 5526 5532 5536 5540 5544 5549 5553 5558 5563 5567 5573 5578 5582 5586 5591 5595 5599 5603 5607 5611 5615 5619 5622 5626 5630 5634 5637 5641 5645 5648 5652 5655 5659
5365 5371 5373 5373 5373 5372 5372 5374 5376 5377 5377 5377 5377 5378 5382 5383 5382 5387 5389 5384 5387 5399 5402 5400 5404 5408 5410 5411 5412 5415 5417 5419 5423 5427 5430 5435 5440 5442 5445 5448 5451 5453 5457 5460 5463 5468 5474 5480 5486 5491 5497 5503 5508 5513 5517 5522 5527 5532 5536 5540 5544 5549 5554 5559 5564 5569 5574 5579 5583 5587 5592 5596 5600 5604 5607 5611 5615 5619 5623 5627 5630 5634 5638 5642 5645 5649 5652
5356 5364 5367 5366 5367 5366 5363 5364 5368 5370 5371 5372 5374 5376 5378 5378 5379 5382 5379 5375 5382 5393 5394 5393 5394 5397 5401 5402 5403 5407 5409 5410 5412 5417 5422 5427 5431 5434 5438 5441 5444 5447 5450 5454 5458 5460 5464 5470 5476 5481 5487 5493 5499 5504 5508 5512 5517 5523 5527 5532 5536 5541 5546 5550 5555 5561 5566 5571 5575 5580 5584 5588 5592 5596 5600 5604 5608 5612 5615 5619 5623 5627 5631 5635 5639 5642 5646
5349 5357 5359 5359 5360 5354 5349 5356 5365 5367 5368 5369 5370 5371 5372 5373 5374 5373 5370 5372 5379 5384 5385 5385 5385 5387 5391 5393 5393 5395 5398 5399 5401 5405 5411 5418 5423 5427 5429 5432 5436 5439 5443 5446 5450 5454 5457 5461 5466 5472 5478 5484 5489 5494 5499 5503 5508 5513 5518 5524 5528 5533 5538 5542 5547 5552 5557 5562 5567 5571 5576 5580 5584 5589 5593 5597 5600 5604 5608 5612 5616 5620 5624 5628 5632 5635 5639
5343 5348 5350 5349 5345 5338 5341 5355 5363 5362 5362 5363 5363 5364 5366 5368 5367 5365 5365 5369 5374 5376 5377 5378 5377 5378 5380 5380 5381 5385 5388 5389 5391 5394 5399 5407 5415 5420 5421 5424 5427 5430 5435 5439 5442 5446 5449 5452 5457 5463 5468 5474 5479 5484 5490 5495 5499 5504 5509 5515 5520 5524 5529 5534 5539 5544 5548 5554 5558 5563 5568 5572 5577 5581 5585 5589 5593 5597 5601 5605 5609 5613 5617 5621 5625 5628 5632
5335 5339 5341 5335 5326 5329 5343 5354 5354 5353 5356 5357 5356 5357 5360 5362 5362 5361 5362 5364 5368 5370 5371 5370 5368 5368 5369 5370 5374 5379 5380 5380 5382 5384 5388 5396 5406 5411 5413 5416 5419 5421 5426 5431 5434 5437 5441 5444 5449 5453 5458 5463 5468 5474 5480 5485 5490 5496 5500 5505 5510 5515 5520 5525 5530 5536 5541 5546 5550 5555 5560 5564 5569 5573 5577 5581 5585 5589 5594 5598 5602 5606 5610 5614 5617 5621 5624
5328 5329 5328 5321 5319 5329 5341 5344 5342 5346 5351 5351 5350 5351 5354 5357 5358 5357 5358 5360 5362 5364 5363 5363 5362 5360 5359 5363 5369 5371 5369 5370 5373 5376 5378 5384 5392 5399 5403 5406 5409 5411 5415 5421 5426 5430 5433 5436 5440 5444 5448 5453 5458 5463 5469 5475 5481 5487 5492 5497 5502 5507 5512 5517 5521 5527 5532 5537 5543 5548 5553 5557 5561 5565 5569 5573 5578 5582 5587 5591 5595 5599 5603 5606 5610 5613 5617
5320 5320 5317 5316 5318 5322 5327 5329 5335 5343 5346 5347 5346 5344 5347 5352 5353 5351 5353 5355 5356 5357 5357 5358 5357 5353 5351 5358 5364 5362 5360 5362 5365 5367 5369 5372 5378 5386 5392 5395 5399 5402 5406 5411 5416 5421 5425 5429 5432 5435 5439 5444 5448 5453 5458 5464 5471 5478 5484 5489 5494 5499 5505 5509 5514 5518 5523 5528 5534 5539 5545 5550 5554 5558 5562 5566 5571 5575 5580 5584 5588 5592 5596 5599 5603 5606 5610
5313 5314 5311 5311 5309 5308 5313 5323 5333 5340 5342 5342 5340 5336 5338 5345 5348 5348 5349 5350 5351 5352 5352 5352 5350 5346 5346 5352 5357 5355 5353 5355 5356 5357 5360 5362 5366 5372 5379 5385 5389 5393 5397 5402 5406 5411 5417 5422 5426 5429 5432 5435 5440 5445 5450 5455 5461 5468 5474 5480 5485 5490 5496 5501 5506 5511 5515 5520 5525 5530 5536 5541 5546 5551 5555 5559 5564 5568 5572 5577 5581 5585 5588 5592 5596 5599 5603
5305 5306 5303 5302 5301 5300 5307 5320 5331 5335 5335 5336 5334 5327 5329 5340 5346 5344 5344 5345 5346 5346 5346 5344 5342 5341 5343 5347 5350 5349 5348 5348 5348 5350 5352 5354 5356 5360 5366 5374 5380 5383 5388 5394 5399 5403 5408 5413 5418 5423 5426 5428 5432 5437 5442 5447 5452 5458 5464 5470 5476 5481 5486 5492 5497 5502 5508 5513 5517 5522 5526 5531 5536 5542 5547 5552 5557 5561 5565 5569 5573 5577 5581 5585 5588 5592 5595
5297 5298 5296 5295 5297 5296 5300 5312 5325 5328 5328 5330 5325 5317 5322 5338 5344 5340 5339 5339 5339 5338 5337 5335 5335 5338 5340 5341 5342 5343 5343 5343 5343 5344 5345 5345 5347 5349 5354 5363 5371 5375 5379 5386 5392 5396 5401 5405 5409 5414 5418 5422 5424 5428 5434 5440 5445 5450 5455 5461 5467 5472 5477 5483 5488 5494 5499 5505 5510 5514 5518 5522 5527 5532 5538 5543 5548 5553 5558 5562 5565 5569 5574 5578 5581 5585 5588
5291 5293 5290 5289 5292 5293 5294 5305 5319 5323 5321 5319 5314 5313 5323 5335 5338 5335 5334 5332 5330 5329 5328 5329 5332 5335 5336 5335 5336 5337 5338 5338 5337 5338 5338 5338 5339 5341 5344 5351 5360 5366 5371 5377 5384 5389 5394 5398 5401 5405 5409 5414 5417 5420 5426 5432 5437 5442 5447 5452 5458 5463 5469 5474 5479 5485 5491 5496 5501 5506 5510 5515 5519 5524 5529 5534 5539 5544 5549 5553 5558 5562 5566 5570 5574 5578 5581
5284 5288 5287 5285 5286 5285 5288 5300 5313 5315 5311 5309 5310 5316 5325 5328 5327 5327 5326 5323 5321 5321 5323 5326 5328 5330 5330 5330 5331 5331 5332 5332 5331 5331 5331 5332 5333 5334 5336 5340 5348 5356 5362 5368 5375 5381 5386 5390 5394 5397 5400 5405 5409 5413 5418 5423 5428 5433 5439 5444 5449 5454 5460 5465 5470 5476 5481 5487 5492 5497 5502 5507 5511 5516 5521 5525 5530 5535 5540 5545 5550 5555 5559 5563 5567 5571 5574
5280 5282 5280 5279 5278 5277 5284 5298 5305 5304 5304 5308 5312 5317 5319 5318 5318 5318 5317 5316 5316 5317 5320 5322 5322 5324 5325 5326 5326 5326 5326 5326 5325 5324 5325 5326 5326 5328 5329 5332 5337 5344 5352 5359 5366 5372 5377 5382 5386 5389 5392 5397 5401 5405 5410 5415 5419 5424 5429 5435 5440 5445 5450 5456 5462 5467 5472 5477 5483 5489 5493 5498 5503 5507 5512 5517 5522 5527 5532 5537 5542 5546 5551 5555 5559 5563 5567
5273 5272 5271 5274 5278 5279 5284 5295 5298 5297 5302 5308 5309 5309 5309 5309 5310 5310 5310 5312 5313 5313 5315 5317 5317 5319 5321 5321 5322 5322 5321 5320 5319 5318 5319 5319 5320 5322 5323 5325 5327 5332 5340 5349 5356 5363 5368 5373 5377 5381 5384 5388 5393 5398 5402 5407 5411 5416 5420 5425 5431 5436 5441 5447 5453 5458 5463 5468 5474 5479 5485 5490 5494 5499 5504 5509 5514 5518 5523 5528 5533 5538 5543 5547 5552 5556 5560
5265 5267 5269 5274 5279 5278 5279 5287 5292 5294 5297 5301 5301 5301 5302 5302 5303 5304 5304 5306 5307 5308 5310 5312 5314 5315 5316 5316 5317 5317 5315 5315 5314 5313 5313 5313 5314 5315 5316 5317 5319 5322 5329 5337 5345 5352 5359 5363 5368 5372 5376 5380 5385 5390 5394 5399 5403 5408 5412 5417 5422 5427 5432 5437 5443 5448 5454 5459 5464 5470 5475 5481 5486 5490 5495 5500 5505 5510 5515 5520 5525 5530 5535 5539 5544 5549 5553
5260 5264 5267 5271 5274 5273 5275 5281 5287 5288 5290 5292 5294 5295 5295 5295 5296 5296 5297 5299 5301 5303 5306 5309 5310 5310 5310 5311 5311 5311 5310 5310 5309 5309 5308 5307 5306 5307 5309 5310 5311 5314 5319 5325 5333 5341 5348 5354 5358 5363 5367 5372 5376 5381 5386 5391 5395 5400 5405 5409 5414 5419 5424 5428 5433 5439 5444 5449 5455 5460 5465 5471 5476 5481 5487 5492 5496 5501 5506 5512 5516 5521 5526 5531 5536 5541 5545
5256 5260 5264 5268 5269 5269 5272 5276 5278 5280 5282 5284 5286 5288 5289 5289 5289 5289 5291 5294 5295 5297 5301 5304 5305 5305 5305 5306 5306 5305 5305 5304 5304 5304 5303 5301 5300 5300 5301 5303 5304 5306 5309 5315 5321 5329 5337 5343 5348 5352 5357 5362 5367 5372 5378 5383 5387 5392 5397 5402 5406 5411 5416 5420 5424 5429 5435 5440 5445 5450 5456 5461 5467 5472 5478 5483 5488 5493 5498 5503 5508 5512 5517 5522 5527 5532 5537
5250 5255 5260 5262 5262 5263 5268 5271 5272 5274 5276 5277 5279 5281 5282 5283 5284 5285 5287 5289 5290 5292 5296 5298 5300 5301 5301 5301 5301 5300 5299 5299 5298 5298 5297 5295 5295 5294 5294 5295 5296 5298 5301 5305 5311 5318 5325 5332 5338 5342 5347 5352 5357 5363 5368 5374 5379 5384 5389 5393 5398 5402 5407 5412 5417 5421 5425 5430 5436 5441 5446 5451 5457 5463 5469 5474 5479 5484 5489 5494 5498 5503 5507 5512 5518 5522 5527
5244 5248 5252 5254 5255 5258 5262 5265 5267 5269 5269 5271 5273 5274 5276 5278 5281 5282 5282 5283 5285 5287 5290 5293 5296 5297 5296 5296 5295 5295 5294 5294 5293 5292 5291 5290 5289 5288 5288 5289 5290 5291 5293 5296 5301 5307 5313 5320 5327 5332 5336 5341 5347 5352 5358 5363 5370 5376 5381 5385 5390 5394 5398 5403 5408 5413 5417 5421 5426 5431 5436 5442 5447 5453 5459 5465 5470 5475 5479 5484 5489 5494 5498 5503 5507 5511 5515
5239 5243 5245 5248 5251 5254 5257 5259 5261 5263 5263 5265 5266 5269 5271 5274 5276 5277 5277 5279 5281 5283 5286 5288 5290 5291 5291 5291 5290 5290 5289 5289 5288 5287 5286 5285 5283 5282 5283 5283 5283 5285 5286 5288 5292 5296 5301 5308 5315 5321 5326 5331 5336 5342 5348 5353 5359 5366 5372 5377 5382 5386 5391 5395 5399 5405 5410 5413 5417 5422 5427 5432 5437 5443 5449 5455 5461 5466 5470 5475 5480 5485 5490 5495 5499 5502 5507
5236 5239 5241 5244 5247 5250 5252 5254 5256 5257 5259 5260 5262 5265 5267 5270 5272 5273 5274 5275 5277 5280 5281 5282 5283 5284 5285 5285 5285 5285 5284 5284 5283 5282 5282 5280 5278 5278 5278 5279 5278 5279 5280 5281 5284 5287 5291 5296 5302 5310 5316 5321 5326 5332 5339 5344 5349 5355 5363 5369 5373 5378 5383 5387 5391 5396 5401 5406 5409 5413 5418 5423 5428 5433 5438 5445 5451 5456 5461 5466 5471 5476 5481 5486 5490 5495 5500
5232 5235 5238 5241 5243 5245 5248 5250 5252 5253 5255 5256 5258 5261 5264 5266 5268 5270 5270 5271 5273 5275 5275 5276 5277 5279 5279 5279 5280 5280 5279 5278 5278 5277 5276 5275 5274 5273 5274 5275 5275 5275 5275 5276 5278 5280 5282 5286 5291 5298 5304 5310 5316 5322 5330 5336 5340 5345 5352 5360 5365 5369 5375 5380 5383 5387 5392 5397 5402 5405 5409 5414 5418 5423 5428 5434 5440 5446 5452 5457 5462 5467 5472 5477 5481 5486 5491
5229 5232 5234 5237 5240 5241 5243 5246 5248 5249 5251 5252 5255 5257 5260 5262 5264 5265 5266 5267 5268 5269 5270 5271 5272 5273 5274 5274 5274 5274 5274 5273 5272 5271 5270 5269 5269 5269 5270 5270 5271 5271 5272 5272 5273 5275 5276 5278 5282 5287 5292 5298 5305 5311 5319 5327 5332 5336 5341 5349 5356 5361 5366 5371 5376 5380 5383 5388 5393 5398 5401 5405 5409 5414 5419 5424 5430 5436 5442 5448 5453 5458 5463 5468 5473 5477 5482
5226 5228 5231 5234 5236 5238 5240 5242 5243 5245 5247 5249 5251 5254 5256 5257 5259 5260 5261 5262 5263 5265 5266 5267 5267 5268 5268 5268 5268 5268 5268 5268 5266 5265 5264 5264 5263 5264 5264 5265 5266 5267 5267 5268 5269 5270 5271 5273 5276 5279 5283 5288 5294 5300 5307 5315 5323 5328 5331 5337 5344 5352 5358 5363 5367 5372 5375 5379 5384 5389 5393 5398 5402 5406 5411 5416 5421 5427 5432 5438 5444 5449 5454 5458 5463 5468 5473
5223 5225 5228 5231 5232 5234 5236 5238 5239 5241 5243 5245 5247 5249 5252 5253 5255 5256 5257 5258 5259 5260 5262 5262 5263 5263 5263 5263 5263 5263 5262 5261 5260 5259 5259 5259 5259 5259 5260 5261 5262 5262 5263 5264 5265 5266 5267 5268 5270 5272 5276 5280 5284 5289 5295 5302 5311 5318 5323 5326 5332 5340 5348 5354 5358 5363 5367 5371 5375 5379 5384 5389 5395 5400 5404 5408 5413 5418 5423 5428 5434 5439 5444 5449 5453 5458 5463
5219 5222 5225 5227 5228 5230 5232 5234 5235 5237 5239 5242 5244 5246 5247 5249 5251 5252 5253 5254 5255 5256 5257 5258 5258 5258 5258 5257 5257 5257 5256 5255 5254 5254 5254 5254 5254 5255 5255 5257 5257 5258 5259 5260 5261 5262 5263 5264 5265 5267 5270 5273 5277 5281 5285 5291 5298 5306 5313 5318 5321 5328 5336 5344 5349 5354 5358 5363 5366 5371 5375 5380 5385 5391 5396 5400 5404 5409 5414 5419 5424 5429 5434 5439 5444 5449 5453
5216 5219 5221 5223 5225 5226 5228 5231 5232 5234 5236 5238 5240 5242 5244 5245 5247 5248 5249 5250 5251 5251 5252 5253 5253 5253 5253 5252 5251 5250 5249 5249 5248 5248 5249 5250 5251 5251 5252 5252 5253 5254 5255 5256 5257 5258 5259 5260 5261 5262 5264 5267 5270 5274 5277 5281 5287 5293 5301 5308 5312 5316 5324 5332 5339 5344 5349 5353 5357 5362 5366 5370 5376 5382 5387 5392 5397 5401 5406 5410 5415 5419 5424 5429 5434 5439 5444
5213 5215 5218 5220 5222 5223 5226 5228 5229 5231 5232 5234 5236 5238 5240 5241 5243 5244 5245 5246 5246 5247 5248 5248 5248 5248 5248 5246 5245 5244 5243 5242 5243 5243 5244 5245 5247 5247 5248 5248 5249 5250 5251 5252 5253 5254 5255 5255 5257 5258 5259 5261 5264 5267 5270 5274 5278 5283 5289 5296 5302 5306 5312 5319 5327 5333 5338 5343 5348 5352 5357 5362 5367 5373 5379 5384 5388 5393 5398 5402 5406 5410 5415 5419 5424 5429 5434
5211 5213 5215 5217 5219 5221 5223 5225 5226 5227 5229 5231 5232 5234 5236 5237 5239 5239 5240 5241 5242 5242 5243 5243 5243 5243 5242 5241 5240 5238 5237 5237 5238 5239 5240 5241 5242 5243 5244 5245 5245 5246 5247 5248 5249 5250 5250 5251 5252 5253 5255 5256 5258 5261 5264 5267 5270 5274 5279 5285 5291 5296 5301 5307 5314 5321 5327 5333 5338 5343 5348 5353 5359 5364 5370 5375 5379 5384 5389 5394 5399 5402 5406 5410 5414 5419 5423
5208 5211 5213 5215 5217 5219 5221 5222 5223 5224 5226 5227 5229 5231 5232 5233 5234 5235 5236 5237 5237 5237 5238 5238 5238 5238 5237 5235 5234 5234 5233 5234 5234 5235 5236 5236 5237 5238 5240 5240 5241 5242 5243 5244 5245 5245 5246 5247 5248 5249 5250 5251 5253 5255 5258 5260 5263 5267 5271 5276 5281 5286 5291 5296 5302 5309 5316 5322 5328 5333 5338 5344 5349 5355 5360 5365 5370 5375 5380 5385 5391 5395 5398 5402 5406 5410 5414
5205 5208 5211 5213 5215 5217 5218 5219 5220 5221 5222 5224 5225 5227 5228 5229 5230 5231 5231 5232 5232 5232 5233 5233 5232 5232 5231 5230 5230 5230 5230 5230 5231 5231 5231 5232 5233 5234 5235 5236 5236 5237 5238 5239 5240 5241 5242 5243 5244 5244 5245 5246 5248 5250 5252 5254 5257 5260 5263 5268 5272 5277 5282 5287 5291 5298 5305 5312 5318 5323 5329 5334 5339 5345 5350 5355 5361 5366 5372 5376 5382 5386 5391 5394 5398 5401 5405
5203 5206 5208 5210 5212 5214 5215 5216 5217 5218 5219 5221 5222 5223 5224 5225 5225 5226 5226 5227 5227 5227 5228 5227 5227 5226 5226 5226 5226 5226 5226 5226 5226 5227 5227 5228 5228 5229 5229 5230 5231 5232 5233 5234 5235 5236 5237 5239 5239 5240 5241 5242 5243 5244 5246 5248 5251 5253 5256 5260 5264 5269 5274 5278 5282 5288 5294 5301 5307 5313 5319 5324 5330 5336 5341 5346 5351 5356 5362 5368 5372 5377 5382 5386 5390 5393 5397
5201 5203 5206 5207 5209 5211 5212 5213 5214 5215 5216 5217 5218 5219 5220 5221 5221 5222 5222 5222 5222 5222 5222 5222 5222 5221 5221 5221 5221 5221 5222 5222 5222 5223 5223 5223 5224 5224 5224 5225 5225 5226 5228 5229 5230 5231 5232 5233 5234 5235 5236 5237 5238 5239 5241 5243 5245 5247 5250 5253 5257 5261 5265 5270 5274 5278 5283 5290 5296 5303 5309 5315 5320 5326 5331 5336 5341 5346 5352 5358 5363 5368 5373 5377 5381 5385 5389
5199 5201 5203 5205 5206 5208 5209 5210 5211 5212 5213 5214 5215 5216 5216 5217 5217 5217 5218 5217 5217 5217 5216 5216 5216 5216 5216 5216 5217 5217 5217 5217 5218 5218 5218 5218 5218 5218 5219 5219 5220 5220 5222 5223 5225 5226 5227 5228 5229 5230 5231 5231 5233 5234 5236 5237 5240 5242 5245 5247 5250 5254 5257 5261 5266 5270 5274 5279 5286 5292 5298 5304 5310 5316 5322 5327 5332 5337 5342 5347 5353 5358 5364 5368 5372 5376 5380
5197 5199 5201 5202 5204 5205 5206 5207 5208 5209 5209 5210 5211 5212 5212 5212 5213 5213 5212 5212 5212 5211 5210 5210 5210 5210 5211 5211 5212 5212 5213 5213 5213 5213 5213 5213 5213 5212 5212 5213 5213 5214 5215 5217 5219 5220 5221 5222 5223 5223 5225 5226 5227 5229 5231 5233 5234 5237 5239 5242 5245 5247 5251 5254 5257 5261 5266 5270 5276 5282 5288 5294 5300 5306 5312 5318 5323 5328 5333 5338 5343 5348 5354 5359 5364 5368 5372
5196 5197 5198 5199 5200 5201 5202 5203 5204 5205 5206 5207 5207 5207 5208 5208 5208 5207 5207 5207 5206 5205 5204 5204 5204 5205 5206 5207 5207 5207 5208 5208 5208 5208 5208 5208 5207 5207 5207 5208 5208 5209 5210 5211 5212 5214 5215 5216 5217 5217 5219 5220 5221 5223 5225 5228 5230 5232 5234 5237 5239 5242 5245 5247 5250 5254 5258 5262 5267 5272 5278 5284 5290 5296 5302 5308 5314 5320 5324 5329 5334 5339 5344 5349 5354 5359 5363
5193 5194 5195 5196 5197 5198 5199 5200 5201 5201 5202 5202 5203 5203 5203 5202 5202 5202 5201 5201 5200 5199 5199 5199 5200 5200 5201 5202 5202 5203 5203 5203 5203 5203 5203 5203 5203 5203 5203 5203 5204 5205 5206 5206 5207 5208 5209 5210 5211 5212 5213 5214 5216 5217 5220 5222 5225 5227 5229 5232 5234 5237 5239 5242 5244 5247 5251 5255 5259 5264 5269 5275 5281 5287 5292 5298 5304 5310 5315 5320 5325 5330 5335 5340 5345 5350 5355
5191 5191 5192 5193 5194 5195 5196 5196 5197 5197 5197 5198 5198 5197 5197 5197 5197 5196 5195 5194 5194 5194 5194 5195 5195 5196 5196 5197 5197 5197 5198 5198 5198 5198 5199 5199 5200 5200 5200 5200 5200 5201 5202 5203 5203 5204 5205 5205 5206 5207 5208 5209 5211 5212 5215 5217 5220 5222 5224 5227 5229 5231 5234 5236 5239 5241 5244 5248 5252 5256 5261 5266 5272 5278 5283 5289 5294 5300 5306 5311 5316 5321 5326 5331 5336 5342 5346
5188 5189 5189 5190 5191 5192 5192 5193 5193 5193 5193 5193 5193 5192 5192 5191 5191 5190 5190 5189 5189 5190 5190 5191 5191 5192 5192 5192 5192 5193 5193 5193 5194 5194 5195 5196 5196 5196 5196 5196 5197 5197 5198 5199 5199 5200 5201 5201 5202 5203 5204 5205 5207 5208 5210 5212 5215 5217 5220 5222 5224 5226 5228 5230 5233 5236 5238 5241 5245 5249 5253 5258 5263 5269 5275 5280 5285 5291 5296 5301 5306 5312 5317 5322 5328 5333 5337
5185 5186 5186 5187 5187 5188 5188 5188 5188 5188 5188 5188 5187 5187 5187 5186 5186 5186 5186 5186 5186 5186 5186 5187 5187 5187 5188 5188 5188 5189 5189 5189 5190 5190 5191 5192 5192 5192 5192 5193 5193 5193 5194 5195 5195 5196 5197 5197 5198 5199 5200 5202 5203 5205 5206 5208 5210 5212 5215 5217 5219 5221 5222 5225 5227 5230 5232 5235 5238 5242 5246 5250 5255 5260 5266 5271 5277 5282 5287 5292 5297 5302 5307 5313 5319 5324 5329
5182 5182 5183 5183 5183 5183 5184 5184 5183 5183 5183 5183 5182 5182 5182 5182 5182 5182 5183 5183 5183 5183 5183 5183 5183 5184 5184 5184 5185 5185 5185 5186 5186 5187 5187 5188 5188 5188 5189 5189 5189 5190 5190 5191 5192 5192 5193 5194 5195 5196 5197 5199 5200 5201 5203 5204 5206 5208 5210 5211 5213 5215 5217 5219 5221 5223 5226 5229 5232 5235 5239 5243 5247 5251 5256 5262 5267 5272 5278 5283 5289 5294 5299 5304 5310 5316 5320
5178 5178 5179 5179 5179 5179 5179 5178 5178 5178 5178 5178 5178 5178 5179 5179 5179 5179 5179 5180 5180 5180 5180 5180 5180 5180 5180 5181 5181 5181 5182 5182 5182 5183 5183 5184 5184 5185 5185 5185 5186 5186 5187 5188 5188 5189 5190 5191 5192 5193 5194 5195 5196 5198 5199 5200 5202 5203 5205 5207 5208 5210 5212 5214 5215 5218 5220 5223 5226 5229 5232 5235 5239 5243 5247 5252 5257 5263 5268 5274 5280 5285 5291 5296 5302 5307 5312
5174 5174 5174 5174 5174 5174 5174 5174 5174 5174 5174 5175 5175 5175 5176 5176 5176 5176 5176 5176 5176 5177 5177 5177 5177 5177 5177 5177 5178 5178 5178 5178 5178 5179 5179 5180 5180 5180 5181 5181 5182 5183 5183 5184 5185 5186 5187 5187 5188 5189 5190 5191 5193 5194 5195 5196 5198 5199 5201 5202 5204 5205 5207 5208 5210 5212 5214 5216 5219 5222 5225 5228 5232 5235 5239 5244 5249 5254 5260 5266 5272 5277 5283 5289 5294 5299 5304
5169 5169 5169 5169 5169 5169 5170 5170 5170 5171 5171 5172 5172 5172 5173 5173 5173 5173 5173 5173 5173 5173 5173 5173 5173 5174 5174 5174 5174 5174 5174 5175 5175 5175 5175 5175 5176 5176 5177 5177 5178 5179 5179 5180 5181 5182 5183 5184 5185 5186 5187 5188 5189 5190 5191 5192 5194 5195 5197 5198 5199 5201 5202 5203 5205 5206 5208 5210 5213 5215 5218 5221 5224 5228 5232 5236 5241 5246 5252 5258 5264 5270 5276 5282 5287 5292 5297
5165 5165 5165 5166 5166 5166 5167 5167 5168 5168 5168 5169 5169 5169 5169 5170 5170 5170 5170 5170 5170 5170 5170 5170 5170 5170 5170 5170 5170 5170 5170 5171 5171 5171 5171 5171 5172 5172 5172 5173 5173 5174 5175 5176 5176 5177 5178 5179 5180 5181 5182 5183 5184 5185 5187 5188 5189 5191 5192 5194 5195 5196 5197 5199 5200 5201 5203 5204 5206 5209 5211 5214 5217 5221 5224 5228 5233 5238 5244 5250 5256 5262 5268 5274 5279 5284 5289
5162 5162 5163 5163 5164 5164 5164 5165 5165 5165 5165 5166 5166 5166 5166 5166 5166 5166 5166 5165 5165 5165 5165 5165 5165 5165 5165 5165 5165 5165 5166 5166 5166 5166 5167 5167 5167 5168 5168 5168 5169 5169 5170 5171 5171 5172 5173 5174 5176 5177 5178 5179 5180 5181 5182 5183 5185 5186 5188 5189 5191 5192 5193 5194 5195 5196 5197 5199 5200 5202 5205 5208 5211 5214 5217 5221 5225 5230 5235 5241 5247 5253 5260 5266 5271 5276 5282
5160 5161 5161 5161 5161 5162 5162 5162 5162 5162 5162 5162 5162 5162 5162 5162 5162 5161 5161 5161 5161 5160 5160 5160 5160 5160 5160 5160 5160 5160 5160 5160 5161 5161 5161 5161 5162 5162 5163 5163 5164 5164 5165 5165 5166 5167 5168 5169 5170 5171 5172 5173 5175 5176 5177 5178 5179 5181 5182 5184 5186 5187 5188 5189 5191 5192 5193 5194 5195 5196 5199 5201 5204 5207 5210 5214 5218 5222 5228 5233 5238 5244 5251 5256 5262 5267 5273
5158 5159 5159 5159 5159 5159 5159 5159 5159 5159 5159 5158 5158 5158 5158 5157 5157 5157 5156 5156 5155 5155 5154 5154 5154 5153 5153 5153 5153 5153 5153 5154 5154 5154 5154 5155 5155 5156 5156 5157 5157 5158 5159 5160 5160 5161 5162 5163 5164 5165 5166 5168 5169 5170 5171 5173 5174 5175 5177 5178 5180 5182 5183 5184 5186 5187 5188 5189 5190 5191 5193 5195 5198 5201 5204 5207 5211 5215 5220 5225 5231 5236 5242 5248 5253 5258 5264
5156 5156 5156 5156 5156 5156 5156 5155 5155 5155 5154 5154 5153 5153 5152 5152 5151 5151 5150 5150 5149 5148 5148 5147 5147 5147 5146 5146 5146 5146 5146 5146 5146 5147 5147 5147 5148 5148 5149 5149 5150 5151 5152 5153 5154 5155 5156 5157 5158 5159 5160 5161 5163 5164 5165 5167 5168 5169 5171 5173 5174 5176 5177 5179 5180 5181 5183 5184 5185 5186 5188 5189 5192 5194 5197 5200 5204 5208 5213 5218 5223 5228 5234 5240 5245 5250 5256
5154 5154 5153 5153 5153 5152 5152 5151 5150 5150 5149 5149 5148 5147 5146 5146 5145 5145 5144 5143 5143 5142 5141 5141 5140 5140 5140 5139 5139 5139 5139 5139 5139 5139 5139 5139 5139 5140 5140 5141 5142 5143 5144 5145 5146 5147 5149 5150 5151 5152 5153 5155 5156 5157 5159 5160 5162 5163 5165 5166 5168 5170 5171 5173 5174 5176 5177 5179 5180 5182 5183 5184 5186 5189 5191 5194 5198 5201 5206 5210 5216 5221 5226 5232 5238 5243 5248